Location: Aufkirchen
(47.9603°N, 11.3653°E)
Time: 16:36:44
(UTC+01:00)

Tiros 1 - All Passes

Search period start: 26 November 2020 00:00
Search period end: 06 December 2020 00:00
Orbit: 630 x 664 km, 48.4° (Epoch: 25 November)

Date Brightness Start Highest point End Pass type
(mag) Time Alt. Az. Time Alt. Az. Time Alt. Az.
26 Nov - 15:00:05 10° SE 15:00:50 10° SE 15:01:34 10° ESE daylight
26 Nov - 16:37:37 10° SW 16:42:05 39° SSE 16:46:32 10° E daylight
26 Nov - 18:19:15 10° WSW 18:24:04 87° SSE 18:28:50 10° E visible
26 Nov - 20:01:34 10° W 20:06:22 90° SSW 20:11:07 10° E visible
26 Nov - 21:43:53 10° W 21:48:23 43° SSW 21:52:49 10° SE night (unlit)
26 Nov - 23:27:57 10° WSW 23:29:41 12° SW 23:31:23 10° SSW night (unlit)
27 Nov - 15:22:43 10° S 15:26:17 21° SE 15:29:52 10° E daylight
27 Nov - 17:03:11 10° WSW 17:07:55 63° SSE 17:12:38 10° ENE visible
27 Nov - 18:45:19 10° W 18:50:08 84° N 18:54:54 10° E visible
27 Nov - 20:27:37 10° WNW 20:32:22 70° SSW 20:37:04 10° ESE visible
27 Nov - 22:10:13 10° W 22:14:05 25° SW 22:17:55 10° SSE night (unlit)
28 Nov - 15:47:32 10° SW 15:51:57 37° SSE 15:56:22 10° E daylight
28 Nov - 17:29:05 10° WSW 17:33:54 85° SSE 17:38:41 10° E visible
28 Nov - 19:11:23 10° W 19:16:12 89° N 19:20:57 10° E visible
28 Nov - 20:53:42 10° W 20:58:15 46° SSW 21:02:45 10° SE visible
28 Nov - 22:37:27 10° WSW 22:39:36 13° SW 22:41:43 10° SSW night (unlit)
29 Nov - 14:32:44 10° S 14:36:11 20° SE 14:39:37 10° E daylight
29 Nov - 16:13:02 10° WSW 16:17:46 60° SSE 16:22:29 10° ENE daylight
29 Nov - 17:55:08 10° W 17:59:57 84° N 18:04:45 10° E visible
29 Nov - 19:37:26 10° W 19:42:13 73° SSW 19:46:56 10° ESE visible
29 Nov - 21:20:00 10° W 21:23:58 27° SW 21:27:55 10° SSE visible
30 Nov - 14:57:27 10° SSW 15:01:49 35° SSE 15:06:10 10° E daylight
30 Nov - 16:38:55 10° WSW 16:43:44 83° SSE 16:48:32 10° E daylight
30 Nov - 18:21:13 10° W 18:26:02 88° N 18:30:49 10° E visible
30 Nov - 20:03:31 10° W 20:08:07 48° SSW 20:12:40 10° SE visible
30 Nov - 21:47:03 10° WSW 21:49:30 14° SW 21:51:58 10° SSW night (unlit)
01 Dec - 13:42:47 10° S 13:46:04 18° SE 13:49:22 10° E daylight
01 Dec - 15:22:54 10° SW 15:27:37 57° SSE 15:32:20 10° E daylight
01 Dec - 17:04:57 10° W 17:09:48 85° N 17:14:36 10° E visible
01 Dec - 18:47:16 10° W 18:52:04 75° SSW 18:56:48 10° ESE visible
01 Dec - 20:29:47 10° W 20:33:51 28° SW 20:37:54 10° SSE visible
02 Dec - 14:07:23 10° SSW 14:11:41 33° SSE 14:15:59 10° E daylight
02 Dec - 15:48:45 10° WSW 15:53:34 81° SSE 15:58:23 10° E daylight
02 Dec - 17:31:02 10° W 17:35:52 87° N 17:40:39 10° E visible
02 Dec - 19:13:20 10° W 19:17:59 51° SSW 19:22:34 10° SE visible
02 Dec - 20:56:40 10° W 20:59:24 15° SW 21:02:09 10° S visible
03 Dec - 12:52:52 10° S 12:55:58 17° SE 12:59:04 10° E daylight
03 Dec - 14:32:47 10° SW 14:37:28 55° SSE 14:42:10 10° E daylight
03 Dec - 16:14:47 10° W 16:19:37 86° N 16:24:26 10° E daylight
03 Dec - 17:57:05 10° W 18:01:54 78° SSW 18:06:40 10° ESE visible
03 Dec - 19:39:33 10° W 19:43:44 30° SW 19:47:53 10° SSE visible
04 Dec - 13:17:20 10° SSW 13:21:33 31° SE 13:25:47 10° E daylight
04 Dec - 14:58:36 10° WSW 15:03:24 79° SSE 15:08:13 10° E daylight
04 Dec - 16:40:51 10° W 16:45:42 86° N 16:50:30 10° E daylight
04 Dec - 18:23:09 10° W 18:27:50 54° SSW 18:32:28 10° SE visible
04 Dec - 20:06:20 10° W 20:09:19 17° SW 20:12:17 10° S visible
05 Dec - 12:02:58 10° S 12:05:51 16° SE 12:08:45 10° E daylight
05 Dec - 13:42:39 10° SW 13:47:19 52° SSE 13:52:00 10° E daylight
05 Dec - 15:24:36 10° W 15:29:27 86° N 15:34:16 10° E daylight
05 Dec - 17:06:55 10° W 17:11:44 80° SSW 17:16:32 10° ESE visible
05 Dec - 18:49:21 10° W 18:53:37 32° SSW 18:57:50 10° SSE visible
